Location: Poughquag
(41.6090°N, 73.6820°W)
Time: 10:12:06
(UTC-04:00)

Explorer 7 - Visible Passes

Search period start: 09 August 2020 00:00
Search period end: 19 August 2020 00:00
Orbit: 485 x 679 km, 50.3° (Epoch: 08 August)

Date Brightness Start Highest point End Pass type
(mag) Time Alt. Az. Time Alt. Az. Time Alt. Az.
09 Aug 9.6 00:23:23 10° NW 00:24:04 13° NW 00:24:04 13° NW visible
09 Aug 7.0 21:05:09 10° WSW 21:09:07 67° NNW 21:12:55 10° NE visible
09 Aug 8.9 22:46:52 10° WNW 22:50:04 24° N 22:52:16 15° NE visible
10 Aug 9.7 00:28:16 10° NW 00:28:34 12° NW 00:28:34 12° NW visible
10 Aug 7.8 21:10:07 10° W 21:13:58 45° NNW 21:17:39 10° NE visible
10 Aug 9.0 22:52:01 10° WNW 22:55:05 22° N 22:56:40 17° NNE visible
11 Aug 8.3 21:15:13 10° W 21:18:52 34° NNW 21:22:23 10° NE visible
11 Aug 8.8 22:57:06 10° NW 23:00:07 22° N 23:01:00 20° NNE visible
12 Aug 8.7 21:20:24 10° WNW 21:23:49 27° NNW 21:27:08 10° NE visible
12 Aug 8.8 23:02:03 10° NW 23:05:09 23° N 23:05:17 23° N visible
13 Aug 8.8 21:25:34 10° WNW 21:28:49 24° N 21:31:59 10° NE visible
13 Aug 8.8 23:06:55 10° NW 23:09:33 24° N 23:09:33 24° N visible
14 Aug 8.9 21:30:42 10° WNW 21:33:50 22° N 21:36:54 10° NE visible
14 Aug 8.8 23:11:42 10° NW 23:13:49 24° NNW 23:13:49 24° NNW visible
15 Aug 8.8 21:35:45 10° NW 21:38:52 22° N 21:41:48 11° NE visible
15 Aug 9.0 23:16:26 10° NW 23:18:05 22° NW 23:18:05 22° NW visible
16 Aug 8.6 21:40:41 10° NW 21:43:54 24° N 21:46:05 15° NE visible
16 Aug 9.2 23:21:10 10° NW 23:22:22 19° NW 23:22:22 19° NW visible
17 Aug 8.3 21:45:31 10° NW 21:48:55 27° NNE 21:50:22 21° NE visible
17 Aug 9.5 23:25:56 10° WNW 23:26:39 15° WNW 23:26:39 15° WNW visible
18 Aug 7.8 21:50:17 10° NW 21:53:53 34° NNE 21:54:41 30° NE visible
18 Aug 9.7 23:30:46 10° WNW 23:30:58 11° WNW 23:30:58 11° WNW visible
